Time,TemperatureF,DewpointF,PressureIn,WindDirection,WindDirectionDegrees,WindSpeedMPH,WindSpeedGustMPH,Humidity,HourlyPrecipIn,Conditions,Clouds,dailyrainin,SoftwareType,DateUTC
2013-05-02 00:00:00,70.2,68.0,29.91,NNE,33,5.0,9.0,93,0.00,RA,RA,0.00,WeatherDisplay:10.37,2013-05-02 04:00:00,
2013-05-02 00:05:00,70.2,68.0,29.91,NNE,33,5.0,8.0,93,0.00,RA,RA,0.00,WeatherDisplay:10.37,2013-05-02 04:05:00,
2013-05-02 00:10:00,70.2,68.0,29.91,NE,38,5.0,8.0,93,0.00,OVC,OVC,0.00,WeatherDisplay:10.37,2013-05-02 04:10:00,
2013-05-02 00:15:00,70.2,68.0,29.91,NE,42,7.0,8.0,93,0.00,OVC,OVC,0.00,WeatherDisplay:10.37,2013-05-02 04:15:00,
2013-05-02 00:20:00,70.2,68.1,29.91,NE,43,3.0,8.0,93,0.00,OVC,OVC,0.00,WeatherDisplay:10.37,2013-05-02 04:20:00,
2013-05-02 00:25:00,70.3,68.2,29.92,NE,44,5.0,9.0,93,0.00,OVC,OVC,0.00,WeatherDisplay:10.37,2013-05-02 04:25:00,
2013-05-02 00:30:00,70.3,68.2,29.91,NE,45,5.0,10.0,93,0.00,OVC,OVC,0.00,WeatherDisplay:10.37,2013-05-02 04:30:00,
2013-05-02 00:35:00,70.3,68.1,29.92,NE,49,5.0,8.0,93,0.00,-RA,-RA,0.00,WeatherDisplay:10.37,2013-05-02 04:35:00,
2013-05-02 00:40:00,70.2,68.0,29.92,NE,52,3.0,6.0,93,0.00,-RA,-RA,0.00,WeatherDisplay:10.37,2013-05-02 04:40:00,
2013-05-02 00:45:00,70.2,68.0,29.92,ENE,59,6.0,8.0,93,0.00,-RA,-RA,0.00,WeatherDisplay:10.37,2013-05-02 04:45:00,
2013-05-02 00:50:00,70.2,68.0,29.92,NE,51,6.0,7.0,93,0.00,-RA,-RA,0.00,WeatherDisplay:10.37,2013-05-02 04:50:00,
2013-05-02 00:55:00,70.2,68.0,29.91,NE,44,3.0,7.0,93,0.00,-RA,-RA,0.00,WeatherDisplay:10.37,2013-05-02 04:55:00,
2013-05-02 01:00:00,70.2,68.0,29.91,NE,49,3.0,6.0,93,0.00,-RA,-RA,0.00,WeatherDisplay:10.37,2013-05-02 05:00:00,
2013-05-02 01:10:00,70.2,68.0,29.91,ENE,60,2.0,5.0,93,0.00,OVC,OVC,0.00,WeatherDisplay:10.37,2013-05-02 05:10:00,
2013-05-02 01:15:00,70.2,68.0,29.91,NE,47,2.0,6.0,93,0.00,OVC,OVC,0.00,WeatherDisplay:10.37,2013-05-02 05:15:00,
2013-05-02 01:25:00,70.2,68.0,29.91,NE,51,2.0,5.0,93,0.00,OVC,OVC,0.00,WeatherDisplay:10.37,2013-05-02 05:25:00,
2013-05-02 01:30:00,70.2,68.0,29.91,NE,55,2.0,5.0,93,0.00,OVC,OVC,0.00,WeatherDisplay:10.37,2013-05-02 05:30:00,
2013-05-02 01:35:00,70.2,68.0,29.90,ENE,58,2.0,3.0,93,0.00,-RA,-RA,0.00,WeatherDisplay:10.37,2013-05-02 05:35:00,
2013-05-02 01:40:00,70.2,68.0,29.90,ENE,57,2.0,5.0,93,0.00,-RA,-RA,0.00,WeatherDisplay:10.37,2013-05-02 05:40:00,
2013-05-02 01:45:00,70.2,68.0,29.90,NE,51,2.0,5.0,93,0.00,-RA,-RA,0.00,WeatherDisplay:10.37,2013-05-02 05:45:00,
2013-05-02 01:50:00,70.2,68.0,29.90,NE,46,1.0,3.0,93,0.00,-RA,-RA,0.00,WeatherDisplay:10.37,2013-05-02 05:50:00,
2013-05-02 01:55:00,70.2,68.0,29.89,NE,46,1.0,2.0,93,0.01,-RA,-RA,0.01,WeatherDisplay:10.37,2013-05-02 05:55:00,
2013-05-02 02:05:00,70.2,68.0,29.89,NE,44,2.0,3.0,93,0.01,-RA,-RA,0.01,WeatherDisplay:10.37,2013-05-02 06:05:00,
2013-05-02 02:10:00,70.0,67.9,29.89,NE,50,3.0,4.0,93,0.02,-RA,-RA,0.02,WeatherDisplay:10.37,2013-05-02 06:10:00,
2013-05-02 02:15:00,70.1,68.0,29.89,NE,47,2.0,3.0,93,0.02,-RA,-RA,0.02,WeatherDisplay:10.37,2013-05-02 06:15:00,
2013-05-02 02:20:00,70.2,68.0,29.88,NE,41,2.0,3.0,93,0.02,-RA,-RA,0.02,WeatherDisplay:10.37,2013-05-02 06:20:00,
2013-05-02 02:25:00,70.2,68.0,29.88,NE,48,3.0,5.0,93,0.02,-RA,-RA,0.02,WeatherDisplay:10.37,2013-05-02 06:25:00,
2013-05-02 02:30:00,70.0,67.9,29.88,ENE,58,2.0,5.0,93,0.02,-RA,-RA,0.02,WeatherDisplay:10.37,2013-05-02 06:30:00,
2013-05-02 02:35:00,70.0,67.9,29.88,NE,53,1.0,3.0,93,0.02,-RA,-RA,0.02,WeatherDisplay:10.37,2013-05-02 06:35:00,
2013-05-02 02:40:00,70.0,67.9,29.88,NE,53,1.0,2.0,93,0.02,-RA,-RA,0.02,WeatherDisplay:10.37,2013-05-02 06:40:00,
2013-05-02 02:45:00,69.8,67.7,29.88,NE,48,1.0,2.0,93,0.02,-RA,-RA,0.02,WeatherDisplay:10.37,2013-05-02 06:45:00,
2013-05-02 02:50:00,69.9,67.7,29.87,NE,48,2.0,3.0,93,0.02,-RA,-RA,0.02,WeatherDisplay:10.37,2013-05-02 06:50:00,
2013-05-02 02:55:00,69.8,67.7,29.87,NE,45,1.0,3.0,93,0.01,-RA,-RA,0.02,WeatherDisplay:10.37,2013-05-02 06:55:00,
2013-05-02 03:00:00,69.9,67.8,29.87,NE,52,1.0,2.0,93,0.01,-RA,-RA,0.02,WeatherDisplay:10.37,2013-05-02 07:00:00,
2013-05-02 03:05:00,69.9,67.8,29.87,NE,52,2.0,3.0,93,0.01,-RA,-RA,0.02,WeatherDisplay:10.37,2013-05-02 07:05:00,
2013-05-02 03:15:00,69.8,67.7,29.87,NE,52,2.0,3.0,93,0.00,-RA,-RA,0.02,WeatherDisplay:10.37,2013-05-02 07:15:00,
2013-05-02 03:20:00,69.8,67.7,29.87,NE,54,1.0,2.0,93,0.00,-RA,-RA,0.02,WeatherDisplay:10.37,2013-05-02 07:20:00,
2013-05-02 03:25:00,70.0,67.9,29.87,NE,46,3.0,4.0,93,0.00,-RA,-RA,0.02,WeatherDisplay:10.37,2013-05-02 07:25:00,
2013-05-02 03:30:00,70.0,68.2,29.87,NNE,22,5.0,7.0,94,0.00,-RA,-RA,0.02,WeatherDisplay:10.37,2013-05-02 07:30:00,
2013-05-02 03:35:00,69.8,68.0,29.87,NNE,31,6.0,7.0,94,0.00,-RA,-RA,0.02,WeatherDisplay:10.37,2013-05-02 07:35:00,
2013-05-02 03:40:00,69.8,68.0,29.87,NE,48,6.0,7.0,94,0.01,-RA,-RA,0.03,WeatherDisplay:10.37,2013-05-02 07:40:00,
2013-05-02 03:45:00,69.7,67.8,29.87,ENE,63,1.0,6.0,94,0.01,-RA,-RA,0.03,WeatherDisplay:10.37,2013-05-02 07:45:00,
2013-05-02 03:50:00,69.6,67.8,29.87,East,82,1.0,5.0,94,0.01,-RA,-RA,0.03,WeatherDisplay:10.37,2013-05-02 07:50:00,
2013-05-02 03:55:00,69.4,67.6,29.87,ENE,65,1.0,2.0,94,0.01,-RA,-RA,0.03,WeatherDisplay:10.37,2013-05-02 07:55:00,
2013-05-02 04:00:00,69.4,67.6,29.87,ENE,70,1.0,4.0,94,0.01,-RA,-RA,0.03,WeatherDisplay:10.37,2013-05-02 08:00:00,
2013-05-02 04:05:00,69.3,67.5,29.87,East,86,1.0,2.0,94,0.01,-RA,-RA,0.03,WeatherDisplay:10.37,2013-05-02 08:05:00,
2013-05-02 04:10:00,69.3,67.5,29.87,East,92,1.0,2.0,94,0.01,-RA,-RA,0.03,WeatherDisplay:10.37,2013-05-02 08:10:00,
2013-05-02 04:15:00,69.3,67.5,29.87,East,97,1.0,2.0,94,0.01,-RA,-RA,0.03,WeatherDisplay:10.37,2013-05-02 08:15:00,
2013-05-02 04:20:00,69.3,67.5,29.87,East,95,0.0,2.0,94,0.01,-RA,-RA,0.03,WeatherDisplay:10.37,2013-05-02 08:20:00,
2013-05-02 04:30:00,69.2,67.4,29.87,ENE,59,1.0,2.0,94,0.03,-RA,-RA,0.05,WeatherDisplay:10.37,2013-05-02 08:30:00,
2013-05-02 04:35:00,69.1,67.3,29.87,ENE,58,1.0,1.0,94,0.04,-RA,-RA,0.06,WeatherDisplay:10.37,2013-05-02 08:35:00,
2013-05-02 04:40:00,69.0,67.3,29.87,East,85,0.0,2.0,94,0.04,-RA,-RA,0.07,WeatherDisplay:10.37,2013-05-02 08:40:00,
2013-05-02 04:45:00,69.0,67.2,29.87,East,97,1.0,2.0,94,0.07,-RA,-RA,0.10,WeatherDisplay:10.37,2013-05-02 08:45:00,
2013-05-02 04:50:00,68.9,67.1,29.87,ESE,113,1.0,3.0,94,0.10,-RA,-RA,0.13,WeatherDisplay:10.37,2013-05-02 08:50:00,
2013-05-02 04:55:00,68.9,67.1,29.87,SE,127,1.0,2.0,94,0.12,-RA,-RA,0.15,WeatherDisplay:10.37,2013-05-02 08:55:00,
2013-05-02 05:00:00,68.9,67.1,29.87,East,94,5.0,5.0,94,0.14,-RA,-RA,0.17,WeatherDisplay:10.37,2013-05-02 09:00:00,
2013-05-02 05:05:00,68.7,66.9,29.87,NE,54,2.0,6.0,94,0.17,RA,RA,0.20,WeatherDisplay:10.37,2013-05-02 09:05:00,
2013-05-02 05:10:00,68.4,66.6,29.87,NE,46,2.0,5.0,94,0.19,RA,RA,0.22,WeatherDisplay:10.37,2013-05-02 09:10:00,
2013-05-02 05:15:00,68.0,66.2,29.87,NE,41,5.0,6.0,94,0.21,RA,RA,0.24,WeatherDisplay:10.37,2013-05-02 09:15:00,
2013-05-02 05:20:00,68.0,66.2,29.87,NE,53,1.0,9.0,94,0.24,RA,RA,0.28,WeatherDisplay:10.37,2013-05-02 09:20:00,
2013-05-02 05:25:00,68.0,66.2,29.87,ENE,66,2.0,3.0,94,0.27,RA,RA,0.31,WeatherDisplay:10.37,2013-05-02 09:25:00,
2013-05-02 05:30:00,67.8,66.0,29.87,ENE,63,2.0,5.0,94,0.28,RA,RA,0.33,WeatherDisplay:10.37,2013-05-02 09:30:00,
2013-05-02 05:35:00,67.8,66.0,29.87,ENE,65,2.0,5.0,94,0.28,RA,RA,0.35,WeatherDisplay:10.37,2013-05-02 09:35:00,
2013-05-02 05:40:00,67.8,66.0,29.87,East,82,2.0,6.0,94,0.29,RA,RA,0.37,WeatherDisplay:10.37,2013-05-02 09:40:00,
2013-05-02 05:45:00,67.3,65.5,29.87,East,89,10.0,12.0,94,0.28,RA,RA,0.39,WeatherDisplay:10.37,2013-05-02 09:45:00,
2013-05-02 05:50:00,66.8,65.0,29.88,East,80,5.0,10.0,94,0.28,RA,RA,0.41,WeatherDisplay:10.37,2013-05-02 09:50:00,
2013-05-02 05:55:00,66.4,64.6,29.88,East,94,3.0,8.0,94,0.28,RA,RA,0.43,WeatherDisplay:10.37,2013-05-02 09:55:00,
2013-05-02 06:00:00,66.2,64.4,29.88,East,94,2.0,5.0,94,0.26,RA,RA,0.44,WeatherDisplay:10.37,2013-05-02 10:00:00,
2013-05-02 06:05:00,66.2,64.4,29.88,East,88,2.0,6.0,94,0.23,-RA,-RA,0.44,WeatherDisplay:10.37,2013-05-02 10:05:00,
2013-05-02 06:10:00,66.2,64.4,29.88,East,81,2.0,5.0,94,0.22,-RA,-RA,0.45,WeatherDisplay:10.37,2013-05-02 10:10:00,
2013-05-02 06:15:00,66.2,64.1,29.88,East,79,1.0,3.0,93,0.20,-RA,-RA,0.45,WeatherDisplay:10.37,2013-05-02 10:15:00,
2013-05-02 06:20:00,66.2,64.1,29.88,East,83,2.0,3.0,93,0.18,-RA,-RA,0.46,WeatherDisplay:10.37,2013-05-02 10:20:00,
2013-05-02 06:25:00,66.2,64.1,29.88,ENE,77,2.0,3.0,93,0.15,-RA,-RA,0.47,WeatherDisplay:10.37,2013-05-02 10:25:00,
2013-05-02 06:35:00,66.0,63.9,29.88,ENE,70,2.0,3.0,93,0.14,-RA,-RA,0.49,WeatherDisplay:10.37,2013-05-02 10:35:00,
2013-05-02 06:40:00,66.0,63.9,29.88,NE,53,2.0,6.0,93,0.13,-RA,-RA,0.50,WeatherDisplay:10.37,2013-05-02 10:40:00,
2013-05-02 06:45:00,66.0,63.9,29.88,NE,49,3.0,5.0,93,0.11,-RA,-RA,0.50,WeatherDisplay:10.37,2013-05-02 10:45:00,
2013-05-02 06:55:00,66.0,63.9,29.88,NE,48,1.0,2.0,93,0.08,-RA,-RA,0.51,WeatherDisplay:10.37,2013-05-02 10:55:00,
2013-05-02 07:05:00,66.0,63.9,29.88,NE,44,2.0,4.0,93,0.07,OVC,OVC,0.51,WeatherDisplay:10.37,2013-05-02 11:05:00,
2013-05-02 07:10:00,66.2,64.1,29.88,NE,45,2.0,5.0,93,0.06,OVC,OVC,0.51,WeatherDisplay:10.37,2013-05-02 11:10:00,
2013-05-02 07:15:00,66.2,64.1,29.88,NE,49,1.0,5.0,93,0.06,OVC,OVC,0.51,WeatherDisplay:10.37,2013-05-02 11:15:00,
2013-05-02 07:20:00,66.2,64.4,29.89,NE,37,2.0,5.0,94,0.05,OVC,OVC,0.51,WeatherDisplay:10.37,2013-05-02 11:20:00,
2013-05-02 07:25:00,66.2,64.4,29.89,NE,35,1.0,3.0,94,0.04,OVC,OVC,0.51,WeatherDisplay:10.37,2013-05-02 11:25:00,
2013-05-02 07:30:00,66.2,64.4,29.89,NE,47,2.0,3.0,94,0.03,OVC,OVC,0.51,WeatherDisplay:10.37,2013-05-02 11:30:00,
2013-05-02 07:35:00,66.2,64.4,29.88,NE,47,2.0,5.0,94,0.02,OVC,OVC,0.51,WeatherDisplay:10.37,2013-05-02 11:35:00,
2013-05-02 07:40:00,66.2,64.1,29.88,NE,42,3.0,4.0,93,0.01,OVC,OVC,0.51,WeatherDisplay:10.37,2013-05-02 11:40:00,
2013-05-02 07:45:00,66.2,64.4,29.89,NNE,28,1.0,4.0,94,0.01,OVC,OVC,0.51,WeatherDisplay:10.37,2013-05-02 11:45:00,
2013-05-02 07:50:00,66.2,64.1,29.88,NNE,32,2.0,3.0,93,0.00,OVC,OVC,0.51,WeatherDisplay:10.37,2013-05-02 11:50:00,
2013-05-02 07:55:00,66.2,64.5,29.88,NE,43,3.0,5.0,94,0.00,OVC,OVC,0.51,WeatherDisplay:10.37,2013-05-02 11:55:00,
2013-05-02 08:00:00,66.4,64.6,29.89,NE,45,5.0,5.0,94,0.00,OVC,OVC,0.51,WeatherDisplay:10.37,2013-05-02 12:00:00,
2013-05-02 08:05:00,66.6,64.8,29.88,NE,42,3.0,4.0,94,0.00,OVC,OVC,0.51,WeatherDisplay:10.37,2013-05-02 12:05:00,
2013-05-02 08:10:00,66.6,64.8,29.89,NE,49,2.0,3.0,94,0.00,OVC,OVC,0.51,WeatherDisplay:10.37,2013-05-02 12:10:00,
2013-05-02 08:15:00,66.6,64.8,29.89,NE,53,1.0,3.0,94,0.00,OVC,OVC,0.51,WeatherDisplay:10.37,2013-05-02 12:15:00,
2013-05-02 08:20:00,66.7,64.9,29.89,NE,51,5.0,5.0,94,0.00,OVC,OVC,0.51,WeatherDisplay:10.37,2013-05-02 12:20:00,
2013-05-02 08:25:00,66.7,65.0,29.89,NE,48,1.0,5.0,94,0.00,OVC,OVC,0.51,WeatherDisplay:10.37,2013-05-02 12:25:00,
2013-05-02 08:30:00,66.7,65.0,29.89,NE,54,1.0,3.0,94,0.00,OVC,OVC,0.51,WeatherDisplay:10.37,2013-05-02 12:30:00,
2013-05-02 08:35:00,66.9,65.1,29.89,ENE,59,2.0,2.0,94,0.00,OVC,OVC,0.51,WeatherDisplay:10.37,2013-05-02 12:35:00,
2013-05-02 08:40:00,66.9,65.1,29.89,NE,53,3.0,5.0,94,0.00,OVC,OVC,0.51,WeatherDisplay:10.37,2013-05-02 12:40:00,
2013-05-02 08:45:00,66.9,65.1,29.90,NE,52,1.0,3.0,94,0.00,OVC,OVC,0.51,WeatherDisplay:10.37,2013-05-02 12:45:00,
2013-05-02 08:50:00,66.9,65.1,29.90,ENE,61,2.0,3.0,94,0.00,OVC,OVC,0.51,WeatherDisplay:10.37,2013-05-02 12:50:00,
2013-05-02 08:55:00,67.1,65.3,29.90,ENE,66,2.0,3.0,94,0.00,OVC,OVC,0.51,WeatherDisplay:10.37,2013-05-02 12:55:00,
2013-05-02 09:05:00,67.3,65.5,29.90,East,81,0.0,3.0,94,0.00,OVC,OVC,0.51,WeatherDisplay:10.37,2013-05-02 13:05:00,
2013-05-02 09:10:00,67.3,65.5,29.90,East,80,1.0,6.0,94,0.00,OVC,OVC,0.51,WeatherDisplay:10.37,2013-05-02 13:10:00,
2013-05-02 09:15:00,67.3,65.5,29.90,East,81,3.0,4.0,94,0.00,OVC,OVC,0.51,WeatherDisplay:10.37,2013-05-02 13:15:00,
2013-05-02 09:20:00,67.4,65.6,29.90,ENE,71,2.0,3.0,94,0.00,OVC,OVC,0.51,WeatherDisplay:10.37,2013-05-02 13:20:00,
2013-05-02 09:25:00,67.4,65.6,29.90,ENE,73,3.0,5.0,94,0.00,OVC,OVC,0.51,WeatherDisplay:10.37,2013-05-02 13:25:00,
2013-05-02 09:30:00,67.3,65.5,29.90,East,86,3.0,5.0,94,0.01,RA,RA,0.52,WeatherDisplay:10.37,2013-05-02 13:30:00,
2013-05-02 09:35:00,67.8,66.0,29.90,East,79,5.0,5.0,94,0.01,RA,RA,0.52,WeatherDisplay:10.37,2013-05-02 13:35:00,
2013-05-02 09:45:00,68.4,66.6,29.89,East,92,6.0,7.0,94,0.01,OVC,OVC,0.52,WeatherDisplay:10.37,2013-05-02 13:45:00,
2013-05-02 09:50:00,68.9,67.1,29.89,East,84,3.0,6.0,94,0.01,-RA,-RA,0.52,WeatherDisplay:10.37,2013-05-02 13:50:00,
2013-05-02 09:55:00,69.1,67.0,29.89,ENE,77,3.0,8.0,93,0.01,-RA,-RA,0.52,WeatherDisplay:10.37,2013-05-02 13:55:00,
2013-05-02 10:05:00,69.7,67.0,29.89,East,93,3.0,11.0,91,0.01,-RA,-RA,0.52,WeatherDisplay:10.37,2013-05-02 14:05:00,
2013-05-02 10:10:00,69.8,66.7,29.89,East,87,2.0,11.0,90,0.01,-RA,-RA,0.52,WeatherDisplay:10.37,2013-05-02 14:10:00,
2013-05-02 10:15:00,69.8,66.7,29.89,East,91,2.0,9.0,90,0.01,-RA,-RA,0.52,WeatherDisplay:10.37,2013-05-02 14:15:00,
2013-05-02 10:20:00,69.4,66.1,29.89,East,89,5.0,9.0,89,0.01,BKN,BKN,0.52,WeatherDisplay:10.37,2013-05-02 14:20:00,
2013-05-02 10:25:00,69.2,65.8,29.89,East,100,6.0,10.0,89,0.01,BKN,BKN,0.52,WeatherDisplay:10.37,2013-05-02 14:25:00,
2013-05-02 10:30:00,69.1,65.4,29.89,East,85,3.0,8.0,88,0.00,BKN,BKN,0.52,WeatherDisplay:10.37,2013-05-02 14:30:00,
2013-05-02 10:40:00,69.4,65.7,29.89,East,96,2.0,6.0,88,0.00,BKN,BKN,0.52,WeatherDisplay:10.37,2013-05-02 14:40:00,
2013-05-02 10:45:00,69.4,65.7,29.89,East,85,8.0,10.0,88,0.00,BKN,BKN,0.52,WeatherDisplay:10.37,2013-05-02 14:45:00,
2013-05-02 10:50:00,69.5,65.5,29.89,ENE,72,5.0,9.0,87,0.00,BKN,BKN,0.52,WeatherDisplay:10.37,2013-05-02 14:50:00,
2013-05-02 10:55:00,70.1,65.4,29.89,East,83,6.0,8.0,85,0.00,BKN,BKN,0.52,WeatherDisplay:10.37,2013-05-02 14:55:00,
2013-05-02 11:00:00,71.1,65.7,29.89,East,94,3.0,8.0,83,0.00,BKN,BKN,0.52,WeatherDisplay:10.37,2013-05-02 15:00:00,
2013-05-02 11:05:00,71.6,65.1,29.89,East,100,8.0,10.0,80,0.00,-RA,-RA,0.52,WeatherDisplay:10.37,2013-05-02 15:05:00,
2013-05-02 11:15:00,71.6,65.1,29.89,East,95,3.0,10.0,80,0.00,-RA,-RA,0.52,WeatherDisplay:10.37,2013-05-02 15:15:00,
2013-05-02 11:20:00,71.5,65.1,29.89,East,94,7.0,10.0,80,0.00,BKN,BKN,0.52,WeatherDisplay:10.37,2013-05-02 15:20:00,
2013-05-02 11:25:00,70.7,65.0,29.89,East,93,5.0,8.0,82,0.00,BKN,BKN,0.52,WeatherDisplay:10.37,2013-05-02 15:25:00,
2013-05-02 11:30:00,70.5,65.1,29.89,East,87,3.0,5.0,83,0.00,BKN,BKN,0.52,WeatherDisplay:10.37,2013-05-02 15:30:00,
2013-05-02 11:35:00,70.9,65.8,29.89,East,84,3.0,7.0,84,0.00,OVC,OVC,0.52,WeatherDisplay:10.37,2013-05-02 15:35:00,
2013-05-02 11:40:00,71.2,66.1,29.89,East,81,5.0,6.0,84,0.00,OVC,OVC,0.52,WeatherDisplay:10.37,2013-05-02 15:40:00,
2013-05-02 11:45:00,71.3,66.2,29.88,ENE,62,1.0,6.0,84,0.00,OVC,OVC,0.52,WeatherDisplay:10.37,2013-05-02 15:45:00,
2013-05-02 11:50:00,71.5,65.7,29.88,ENE,64,3.0,6.0,82,0.00,OVC,OVC,0.52,WeatherDisplay:10.37,2013-05-02 15:50:00,
2013-05-02 11:55:00,71.8,66.0,29.88,East,79,2.0,7.0,82,0.00,OVC,OVC,0.52,WeatherDisplay:10.37,2013-05-02 15:55:00,
2013-05-02 12:00:00,72.1,66.0,29.88,ENE,72,3.0,6.0,81,0.00,OVC,OVC,0.52,WeatherDisplay:10.37,2013-05-02 16:00:00,
2013-05-02 12:05:00,72.3,66.2,29.87,East,81,3.0,6.0,81,0.00,OVC,OVC,0.52,WeatherDisplay:10.37,2013-05-02 16:05:00,
2013-05-02 12:10:00,72.9,67.0,29.87,East,83,2.0,6.0,82,0.00,OVC,OVC,0.52,WeatherDisplay:10.37,2013-05-02 16:10:00,
2013-05-02 12:15:00,73.5,67.3,29.87,East,89,5.0,7.0,81,0.00,OVC,OVC,0.52,WeatherDisplay:10.37,2013-05-02 16:15:00,
2013-05-02 12:20:00,73.4,67.2,29.87,East,89,6.0,9.0,81,0.00,OVC,OVC,0.52,WeatherDisplay:10.37,2013-05-02 16:20:00,
2013-05-02 12:30:00,72.8,67.4,29.87,East,98,3.0,6.0,83,0.00,OVC,OVC,0.52,WeatherDisplay:10.37,2013-05-02 16:30:00,
2013-05-02 12:35:00,73.0,67.6,29.86,East,100,6.0,8.0,83,0.00,OVC,OVC,0.52,WeatherDisplay:10.37,2013-05-02 16:35:00,
2013-05-02 12:40:00,73.3,67.8,29.86,East,96,1.0,6.0,83,0.00,OVC,OVC,0.52,WeatherDisplay:10.37,2013-05-02 16:40:00,
2013-05-02 12:45:00,73.5,67.7,29.85,ENE,70,1.0,5.0,82,0.00,OVC,OVC,0.52,WeatherDisplay:10.37,2013-05-02 16:45:00,
2013-05-02 12:50:00,73.6,67.8,29.85,ENE,71,5.0,7.0,82,0.00,OVC,OVC,0.52,WeatherDisplay:10.37,2013-05-02 16:50:00,
2013-05-02 12:55:00,73.9,68.1,29.85,ENE,78,3.0,5.0,82,0.00,OVC,OVC,0.52,WeatherDisplay:10.37,2013-05-02 16:55:00,
2013-05-02 13:00:00,73.7,68.2,29.85,ENE,77,2.0,6.0,83,0.00,OVC,OVC,0.52,WeatherDisplay:10.37,2013-05-02 17:00:00,
2013-05-02 13:05:00,73.6,68.1,29.85,ENE,77,2.0,5.0,83,0.00,SCT,SCT,0.52,WeatherDisplay:10.37,2013-05-02 17:05:00,
2013-05-02 13:10:00,73.4,68.3,29.85,East,95,2.0,6.0,84,0.00,SCT,SCT,0.52,WeatherDisplay:10.37,2013-05-02 17:10:00,
2013-05-02 13:15:00,73.6,68.8,29.85,East,100,2.0,9.0,85,0.00,SCT,SCT,0.52,WeatherDisplay:10.37,2013-05-02 17:15:00,
2013-05-02 13:25:00,73.3,68.9,29.84,ESE,116,3.0,5.0,86,0.05,-RA,-RA,0.57,WeatherDisplay:10.37,2013-05-02 17:25:00,
2013-05-02 13:30:00,72.4,67.9,29.84,SE,135,6.0,8.0,86,0.12,-RA,-RA,0.64,WeatherDisplay:10.37,2013-05-02 17:30:00,
2013-05-02 13:35:00,71.6,67.9,29.84,East,83,7.0,9.0,88,0.35,-RA,-RA,0.87,WeatherDisplay:10.37,2013-05-02 17:35:00,
2013-05-02 13:40:00,70.9,67.8,29.84,NNE,30,7.0,9.0,90,0.52,-RA,-RA,1.04,WeatherDisplay:10.37,2013-05-02 17:40:00,
2013-05-02 13:50:00,70.9,68.1,29.83,NE,37,5.0,8.0,91,0.53,-RA,-RA,1.05,WeatherDisplay:10.37,2013-05-02 17:50:00,
2013-05-02 13:55:00,71.0,68.2,29.83,East,80,3.0,5.0,91,0.53,-RA,-RA,1.05,WeatherDisplay:10.37,2013-05-02 17:55:00,
2013-05-02 14:00:00,71.3,68.5,29.83,South,187,1.0,6.0,91,0.54,-RA,-RA,1.06,WeatherDisplay:10.37,2013-05-02 18:00:00,
2013-05-02 14:10:00,71.6,68.8,29.83,ESE,110,1.0,5.0,91,0.54,OVC,OVC,1.06,WeatherDisplay:10.37,2013-05-02 18:10:00,
2013-05-02 14:15:00,71.9,69.2,29.83,ESE,108,3.0,5.0,91,0.54,OVC,OVC,1.06,WeatherDisplay:10.37,2013-05-02 18:15:00,
2013-05-02 14:20:00,72.1,69.0,29.83,ESE,107,1.0,5.0,90,0.54,-RA,-RA,1.06,WeatherDisplay:10.37,2013-05-02 18:20:00,
2013-05-02 14:25:00,72.4,69.3,29.82,ESE,112,2.0,3.0,90,0.49,-RA,-RA,1.06,WeatherDisplay:10.37,2013-05-02 18:25:00,
2013-05-02 14:30:00,72.7,69.2,29.82,ESE,112,1.0,5.0,89,0.42,-RA,-RA,1.06,WeatherDisplay:10.37,2013-05-02 18:30:00,
2013-05-02 14:35:00,72.7,68.9,29.82,East,97,3.0,6.0,88,0.19,OVC,OVC,1.06,WeatherDisplay:10.37,2013-05-02 18:35:00,
2013-05-02 14:45:00,73.0,69.3,29.81,East,101,2.0,4.0,88,0.01,OVC,OVC,1.06,WeatherDisplay:10.37,2013-05-02 18:45:00,
2013-05-02 14:50:00,73.0,69.3,29.82,East,88,1.0,2.0,88,0.01,OVC,OVC,1.06,WeatherDisplay:10.37,2013-05-02 18:50:00,
2013-05-02 14:55:00,72.9,69.1,29.82,NE,52,1.0,2.0,88,0.01,OVC,OVC,1.06,WeatherDisplay:10.37,2013-05-02 18:55:00,
2013-05-02 15:00:00,72.9,69.4,29.81,NNE,25,3.0,3.0,89,0.00,OVC,OVC,1.06,WeatherDisplay:10.37,2013-05-02 19:00:00,
2013-05-02 15:05:00,73.0,69.6,29.81,NE,39,0.0,3.0,89,0.01,RA,RA,1.07,WeatherDisplay:10.37,2013-05-02 19:05:00,
2013-05-02 15:10:00,73.0,69.6,29.81,East,97,3.0,3.0,89,0.01,RA,RA,1.07,WeatherDisplay:10.37,2013-05-02 19:10:00,
2013-05-02 15:20:00,73.1,69.6,29.81,SE,135,1.0,2.0,89,0.01,OVC,OVC,1.07,WeatherDisplay:10.37,2013-05-02 19:20:00,
2013-05-02 15:25:00,73.0,69.6,29.81,SE,128,1.0,5.0,89,0.01,OVC,OVC,1.07,WeatherDisplay:10.37,2013-05-02 19:25:00,
2013-05-02 15:30:00,73.0,69.6,29.81,SE,146,2.0,5.0,89,0.02,RA,RA,1.08,WeatherDisplay:10.37,2013-05-02 19:30:00,
2013-05-02 15:35:00,72.7,69.3,29.81,South,190,3.0,6.0,89,0.04,RA,RA,1.10,WeatherDisplay:10.37,2013-05-02 19:35:00,
2013-05-02 15:40:00,72.1,69.3,29.81,SSW,211,3.0,6.0,91,0.05,RA,RA,1.11,WeatherDisplay:10.37,2013-05-02 19:40:00,
2013-05-02 15:45:00,71.8,69.0,29.81,SSW,211,3.0,6.0,91,0.07,RA,RA,1.13,WeatherDisplay:10.37,2013-05-02 19:45:00,
2013-05-02 15:50:00,71.6,69.1,29.80,SSW,210,2.0,5.0,92,0.09,RA,RA,1.15,WeatherDisplay:10.37,2013-05-02 19:50:00,
2013-05-02 15:55:00,71.4,68.9,29.80,SSW,198,1.0,5.0,92,0.10,RA,RA,1.16,WeatherDisplay:10.37,2013-05-02 19:55:00,
2013-05-02 16:00:00,71.2,68.8,29.80,SSW,195,5.0,6.0,92,0.12,RA,RA,1.18,WeatherDisplay:10.37,2013-05-02 20:00:00,
2013-05-02 16:05:00,71.2,69.0,29.80,SSW,196,3.0,5.0,93,0.19,RA,RA,1.26,WeatherDisplay:10.37,2013-05-02 20:05:00,
2013-05-02 16:15:00,70.8,68.3,29.80,South,187,3.0,5.0,92,0.26,RA,RA,1.32,WeatherDisplay:10.37,2013-05-02 20:15:00,
2013-05-02 16:20:00,70.5,68.4,29.79,SSW,200,1.0,3.0,93,0.28,RA,RA,1.34,WeatherDisplay:10.37,2013-05-02 20:20:00,
2013-05-02 16:25:00,70.4,68.2,29.79,SW,220,3.0,5.0,93,0.31,RA,RA,1.38,WeatherDisplay:10.37,2013-05-02 20:25:00,
2013-05-02 16:30:00,70.2,68.1,29.79,WSW,239,2.0,5.0,93,0.37,RA,RA,1.45,WeatherDisplay:10.37,2013-05-02 20:30:00,
2013-05-02 16:35:00,70.5,68.3,29.79,SSW,203,3.0,4.0,93,0.35,-RA,-RA,1.45,WeatherDisplay:10.37,2013-05-02 20:35:00,
2013-05-02 16:40:00,70.7,68.6,29.79,SE,134,3.0,7.0,93,0.36,-RA,-RA,1.47,WeatherDisplay:10.37,2013-05-02 20:40:00,
2013-05-02 16:45:00,70.9,68.8,29.79,SE,136,3.0,6.0,93,0.37,-RA,-RA,1.50,WeatherDisplay:10.37,2013-05-02 20:45:00,
2013-05-02 16:50:00,70.7,68.6,29.79,SE,136,3.0,9.0,93,0.41,-RA,-RA,1.55,WeatherDisplay:10.37,2013-05-02 20:50:00,
2013-05-02 16:55:00,70.7,68.6,29.79,ESE,123,3.0,6.0,93,0.45,-RA,-RA,1.61,WeatherDisplay:10.37,2013-05-02 20:55:00,
2013-05-02 17:00:00,70.5,68.4,29.79,ESE,104,2.0,8.0,93,0.47,-RA,-RA,1.65,WeatherDisplay:10.37,2013-05-02 21:00:00,
2013-05-02 17:05:00,70.5,68.4,29.79,East,95,2.0,6.0,93,0.41, +RA, +RA,1.66,WeatherDisplay:10.37,2013-05-02 21:05:00,
2013-05-02 17:10:00,70.5,68.4,29.79,East,93,2.0,2.0,93,0.37, +RA, +RA,1.68,WeatherDisplay:10.37,2013-05-02 21:10:00,
2013-05-02 17:15:00,70.5,68.4,29.78,ESE,108,2.0,2.0,93,0.37, +RA, +RA,1.69,WeatherDisplay:10.37,2013-05-02 21:15:00,
2013-05-02 17:20:00,70.6,68.5,29.78,ESE,114,2.0,3.0,93,0.35, +RA, +RA,1.70,WeatherDisplay:10.37,2013-05-02 21:20:00,
2013-05-02 17:25:00,70.7,68.6,29.78,ESE,108,1.0,2.0,93,0.33, +RA, +RA,1.71,WeatherDisplay:10.37,2013-05-02 21:25:00,
2013-05-02 17:30:00,70.9,68.8,29.78,East,94,1.0,2.0,93,0.26, +RA, +RA,1.72,WeatherDisplay:10.37,2013-05-02 21:30:00,
2013-05-02 17:35:00,70.9,68.8,29.78,East,87,0.0,2.0,93,0.26,-RA,-RA,1.72,WeatherDisplay:10.37,2013-05-02 21:35:00,
2013-05-02 17:40:00,71.0,68.9,29.78,East,83,1.0,2.0,93,0.24,-RA,-RA,1.72,WeatherDisplay:10.37,2013-05-02 21:40:00,
2013-05-02 17:50:00,71.1,68.9,29.78,NE,52,1.0,2.0,93,0.16,-RA,-RA,1.72,WeatherDisplay:10.37,2013-05-02 21:50:00,
2013-05-02 17:55:00,71.1,68.9,29.78,NE,45,2.0,2.0,93,0.11,-RA,-RA,1.72,WeatherDisplay:10.37,2013-05-02 21:55:00,
2013-05-02 18:00:00,71.1,68.9,29.78,NE,43,1.0,2.0,93,0.07,-RA,-RA,1.72,WeatherDisplay:10.37,2013-05-02 22:00:00,
2013-05-02 18:05:00,71.1,69.0,29.77,NE,34,2.0,2.0,93,0.05,OVC,OVC,1.72,WeatherDisplay:10.37,2013-05-02 22:05:00,
2013-05-02 18:10:00,71.2,69.1,29.77,NNE,33,1.0,2.0,93,0.04,OVC,OVC,1.72,WeatherDisplay:10.37,2013-05-02 22:10:00,
2013-05-02 18:15:00,71.2,69.4,29.77,NW,314,2.0,4.0,94,0.05,RA,RA,1.74,WeatherDisplay:10.37,2013-05-02 22:15:00,
2013-05-02 18:20:00,71.2,69.4,29.77,West,259,3.0,5.0,94,0.07,RA,RA,1.77,WeatherDisplay:10.37,2013-05-02 22:20:00,
2013-05-02 18:25:00,71.0,69.2,29.78,SW,230,1.0,3.0,94,0.28,RA,RA,1.99,WeatherDisplay:10.37,2013-05-02 22:25:00,
2013-05-02 18:30:00,70.7,68.6,29.77,ESE,109,1.0,6.0,93,0.38,RA,RA,2.09,WeatherDisplay:10.37,2013-05-02 22:30:00,
2013-05-02 18:35:00,70.6,68.5,29.78,East,79,1.0,5.0,93,0.43,RA,RA,2.15,WeatherDisplay:10.37,2013-05-02 22:35:00,
2013-05-02 18:40:00,69.8,67.1,29.79,South,178,2.0,10.0,91,0.62,RA,RA,2.34,WeatherDisplay:10.37,2013-05-02 22:40:00,
2013-05-02 18:45:00,69.4,67.3,29.78,SSW,196,2.0,5.0,93,0.71,RA,RA,2.43,WeatherDisplay:10.37,2013-05-02 22:45:00,
2013-05-02 18:50:00,68.9,66.8,29.78,SSW,197,2.0,6.0,93,0.75,RA,RA,2.47,WeatherDisplay:10.37,2013-05-02 22:50:00,
2013-05-02 18:55:00,68.7,66.6,29.78,SSW,193,2.0,3.0,93,0.80,RA,RA,2.51,WeatherDisplay:10.37,2013-05-02 22:55:00,
2013-05-02 19:00:00,68.7,66.6,29.78,SSW,206,1.0,3.0,93,0.81,RA,RA,2.53,WeatherDisplay:10.37,2013-05-02 23:00:00,
2013-05-02 19:05:00,68.7,66.6,29.78,WSW,249,2.0,3.0,93,0.83,RA,RA,2.55,WeatherDisplay:10.37,2013-05-02 23:05:00,
2013-05-02 19:10:00,68.7,66.9,29.78,WNW,282,1.0,3.0,94,0.85,RA,RA,2.56,WeatherDisplay:10.37,2013-05-02 23:10:00,
2013-05-02 19:15:00,68.7,66.9,29.78,WNW,295,0.0,2.0,94,0.83,RA,RA,2.57,WeatherDisplay:10.37,2013-05-02 23:15:00,
2013-05-02 19:20:00,68.7,66.6,29.78,WNW,287,1.0,1.0,93,0.81,RA,RA,2.58,WeatherDisplay:10.37,2013-05-02 23:20:00,
2013-05-02 19:25:00,68.7,66.9,29.78,SW,230,1.0,2.0,94,0.61,RA,RA,2.60,WeatherDisplay:10.37,2013-05-02 23:25:00,
2013-05-02 19:30:00,68.9,67.1,29.78,SW,224,1.0,2.0,94,0.52,RA,RA,2.61,WeatherDisplay:10.37,2013-05-02 23:30:00,
2013-05-02 19:35:00,68.8,67.0,29.77,WSW,241,1.0,2.0,94,0.49,RA,RA,2.63,WeatherDisplay:10.37,2013-05-02 23:35:00,
2013-05-02 19:40:00,68.9,67.1,29.77,WSW,248,1.0,2.0,94,0.30,RA,RA,2.64,WeatherDisplay:10.37,2013-05-02 23:40:00,
2013-05-02 19:45:00,69.1,67.3,29.77,WSW,248,1.0,2.0,94,0.22,RA,RA,2.65,WeatherDisplay:10.37,2013-05-02 23:45:00,
2013-05-02 19:50:00,69.1,67.3,29.77,WSW,256,1.0,2.0,94,0.19, +RA, +RA,2.66,WeatherDisplay:10.37,2013-05-02 23:50:00,
2013-05-02 19:55:00,69.1,67.3,29.77,West,259,1.0,3.0,94,0.15, +RA, +RA,2.66,WeatherDisplay:10.37,2013-05-02 23:55:00,
2013-05-02 20:00:00,69.1,67.3,29.77,West,259,1.0,2.0,94,0.13, +RA, +RA,2.66,WeatherDisplay:10.37,2013-05-03 00:00:00,
2013-05-02 20:10:00,68.9,67.1,29.77,WSW,251,1.0,2.0,94,0.11,RA,RA,2.67,WeatherDisplay:10.37,2013-05-03 00:10:00,
2013-05-02 20:15:00,68.7,66.9,29.77,West,260,0.0,2.0,94,0.10,BKN,BKN,2.67,WeatherDisplay:10.37,2013-05-03 00:15:00,
2013-05-02 20:20:00,68.7,66.9,29.78,West,270,0.0,0.0,94,0.10,RA,RA,2.68,WeatherDisplay:10.37,2013-05-03 00:20:00,
2013-05-02 20:25:00,68.7,66.9,29.78,West,270,0.0,0.0,94,0.09,RA,RA,2.69,WeatherDisplay:10.37,2013-05-03 00:25:00,
2013-05-02 20:30:00,68.6,66.8,29.77,West,270,0.0,0.0,94,0.09,RA,RA,2.70,WeatherDisplay:10.37,2013-05-03 00:30:00,
2013-05-02 20:35:00,68.6,66.8,29.78,West,270,0.0,0.0,94,0.08,RA,RA,2.71,WeatherDisplay:10.37,2013-05-03 00:35:00,
2013-05-02 20:40:00,68.6,66.8,29.78,West,270,0.0,0.0,94,0.07,RA,RA,2.71,WeatherDisplay:10.37,2013-05-03 00:40:00,
2013-05-02 20:45:00,68.5,66.7,29.78,West,270,0.0,0.0,94,0.06,BKN,BKN,2.71,WeatherDisplay:10.37,2013-05-03 00:45:00,
2013-05-02 20:50:00,68.7,66.9,29.78,West,266,1.0,1.0,94,0.06,RA,RA,2.72,WeatherDisplay:10.37,2013-05-03 00:50:00,
2013-05-02 20:55:00,68.7,66.9,29.78,SW,233,1.0,2.0,94,0.06,RA,RA,2.72,WeatherDisplay:10.37,2013-05-03 00:55:00,
2013-05-02 21:00:00,68.7,66.9,29.78,SSW,206,1.0,2.0,94,0.06,BKN,BKN,2.72,WeatherDisplay:10.37,2013-05-03 01:00:00,
2013-05-02 21:05:00,68.7,66.9,29.78,SSW,202,2.0,2.0,94,0.05,-RA,-RA,2.72,WeatherDisplay:10.37,2013-05-03 01:05:00,
2013-05-02 21:10:00,68.8,67.0,29.78,SSW,193,2.0,2.0,94,0.05,-RA,-RA,2.72,WeatherDisplay:10.37,2013-05-03 01:10:00,
2013-05-02 21:15:00,68.9,67.1,29.78,South,170,2.0,3.0,94,0.05,-RA,-RA,2.72,WeatherDisplay:10.37,2013-05-03 01:15:00,
2013-05-02 21:20:00,68.9,67.1,29.79,SSE,168,2.0,4.0,94,0.04,OVC,OVC,2.72,WeatherDisplay:10.37,2013-05-03 01:20:00,
2013-05-02 21:25:00,68.9,67.1,29.79,South,184,1.0,3.0,94,0.03,OVC,OVC,2.72,WeatherDisplay:10.37,2013-05-03 01:25:00,
2013-05-02 21:30:00,68.9,67.1,29.79,South,187,3.0,5.0,94,0.02,OVC,OVC,2.72,WeatherDisplay:10.37,2013-05-03 01:30:00,
2013-05-02 21:35:00,68.7,66.9,29.79,SSW,197,2.0,5.0,94,0.01,OVC,OVC,2.72,WeatherDisplay:10.37,2013-05-03 01:35:00,
2013-05-02 21:40:00,68.6,66.8,29.79,SSW,196,3.0,5.0,94,0.01,OVC,OVC,2.72,WeatherDisplay:10.37,2013-05-03 01:40:00,
2013-05-02 21:45:00,68.5,66.7,29.79,SSW,199,3.0,3.0,94,0.01,OVC,OVC,2.72,WeatherDisplay:10.37,2013-05-03 01:45:00,
2013-05-02 21:50:00,68.4,66.6,29.79,SSW,201,1.0,5.0,94,0.01,RA,RA,2.73,WeatherDisplay:10.37,2013-05-03 01:50:00,
2013-05-02 21:55:00,68.4,66.6,29.79,SSW,202,1.0,3.0,94,0.01,RA,RA,2.73,WeatherDisplay:10.37,2013-05-03 01:55:00,
2013-05-02 22:00:00,68.1,66.3,29.79,SSW,202,2.0,3.0,94,0.01,OVC,OVC,2.73,WeatherDisplay:10.37,2013-05-03 02:00:00,
2013-05-02 22:05:00,68.0,66.2,29.79,SSW,196,2.0,3.0,94,0.01,OVC,OVC,2.73,WeatherDisplay:10.37,2013-05-03 02:05:00,
2013-05-02 22:10:00,68.0,66.2,29.79,South,189,1.0,2.0,94,0.01,OVC,OVC,2.73,WeatherDisplay:10.37,2013-05-03 02:10:00,
2013-05-02 22:15:00,68.0,66.2,29.80,South,174,2.0,2.0,94,0.01,OVC,OVC,2.73,WeatherDisplay:10.37,2013-05-03 02:15:00,
2013-05-02 22:20:00,68.0,66.2,29.79,SSE,158,1.0,3.0,94,0.01,OVC,OVC,2.73,WeatherDisplay:10.37,2013-05-03 02:20:00,
2013-05-02 22:25:00,68.0,66.2,29.79,SE,145,2.0,3.0,94,0.01,OVC,OVC,2.73,WeatherDisplay:10.37,2013-05-03 02:25:00,
2013-05-02 22:30:00,68.0,66.2,29.80,SE,137,2.0,5.0,94,0.01,OVC,OVC,2.73,WeatherDisplay:10.37,2013-05-03 02:30:00,
2013-05-02 22:35:00,68.0,66.2,29.80,SE,145,3.0,5.0,94,0.01,OVC,OVC,2.73,WeatherDisplay:10.37,2013-05-03 02:35:00,
2013-05-02 22:45:00,67.8,66.0,29.80,SSE,159,2.0,5.0,94,0.01,OVC,OVC,2.73,WeatherDisplay:10.37,2013-05-03 02:45:00,
2013-05-02 22:50:00,67.7,65.9,29.80,SSE,157,2.0,4.0,94,0.00,OVC,OVC,2.73,WeatherDisplay:10.37,2013-05-03 02:50:00,
2013-05-02 22:55:00,67.8,66.0,29.80,South,182,1.0,2.0,94,0.00,OVC,OVC,2.73,WeatherDisplay:10.37,2013-05-03 02:55:00,
2013-05-02 23:05:00,67.8,66.0,29.80,SSW,199,1.0,2.0,94,0.00,OVC,OVC,2.73,WeatherDisplay:10.37,2013-05-03 03:05:00,
2013-05-02 23:10:00,67.6,65.9,29.80,South,177,1.0,2.0,94,0.00,OVC,OVC,2.73,WeatherDisplay:10.37,2013-05-03 03:10:00,
2013-05-02 23:15:00,67.7,65.9,29.80,SSE,162,2.0,3.0,94,0.00,OVC,OVC,2.73,WeatherDisplay:10.37,2013-05-03 03:15:00,
2013-05-02 23:20:00,67.8,66.0,29.80,SSE,150,3.0,4.0,94,0.00,OVC,OVC,2.73,WeatherDisplay:10.37,2013-05-03 03:20:00,
2013-05-02 23:25:00,67.8,66.0,29.80,SE,145,2.0,4.0,94,0.00,OVC,OVC,2.73,WeatherDisplay:10.37,2013-05-03 03:25:00,
2013-05-02 23:30:00,67.8,66.0,29.79,SSE,149,1.0,2.0,94,0.00,OVC,OVC,2.73,WeatherDisplay:10.37,2013-05-03 03:30:00,
2013-05-02 23:35:00,67.8,66.0,29.79,SSE,156,2.0,3.0,94,0.00,OVC,OVC,2.73,WeatherDisplay:10.37,2013-05-03 03:35:00,
2013-05-02 23:40:00,67.8,66.0,29.79,South,176,1.0,2.0,94,0.00,OVC,OVC,2.73,WeatherDisplay:10.37,2013-05-03 03:40:00,
2013-05-02 23:45:00,67.8,66.0,29.79,South,186,2.0,3.0,94,0.00,OVC,OVC,2.73,WeatherDisplay:10.37,2013-05-03 03:45:00,
2013-05-02 23:50:00,67.8,66.0,29.79,SSE,167,2.0,3.0,94,0.00,OVC,OVC,2.73,WeatherDisplay:10.37,2013-05-03 03:50:00,
2013-05-02 23:55:00,67.8,66.0,29.79,SSE,156,1.0,2.0,94,0.00,OVC,OVC,2.73,WeatherDisplay:10.37,2013-05-03 03:55:00,